Weather History for Nantucket, MA

Change the Weather History Date:

Wednesday, January 2, 2013

  Actual Average Record
Temperature  
Mean Temperature 26 °F -  
Max Temperature 32 °F 39 °F 55 °F (1979)
Min Temperature 21 °F 26 °F 8 °F (1999)
Degree Days  
Heating Degree Days 38    
Moisture  
Dew Point 12 °F    
Average Humidity 52    
Maximum Humidity 58    
Minimum Humidity 47    
Precipitation  
Precipitation 0.00 in - - ()
Sea Level Pressure  
Sea Level Pressure 29.96 in    
Wind  
Wind Speed 14 mph (NW)    
Max Wind Speed 20 mph    
Max Gust Speed 28 mph    
Visibility 10 miles    
Events      
Averages and records for this station are not official NWS values.
T = Trace of Precipitation, MM = Missing Value Source: NWS Daily Summary

Daily Weather History Graph

Daily Weather History Graph

Search for Another Location

Airport:

Trip Planner

Search our weather history database for the weather conditions in past years. The results will help you decide how hot, cold, wet, or windy it might be!

Date:

Astronomy

Jan. 02, 2013 Rise Set
Actual Time 7:06 AM EST 4:23 PM EST
Civil Twilight 6:34 AM EST 4:54 PM EST
Nautical Twilight 6:00 AM EST 5:28 PM EST
Astronomical Twilight 5:26 AM EST 6:02 PM EST
Moon 9:55 PM EST (1/2) 9:43 AM EST (1/2)
Length of Visible Light 10h 19m
Length of Day
9h 16m
Waning Gibbous, 75% of the Moon is Illuminated
Jan 2
Waning Gibbous
Jan 4
Last Quarter
Jan 11
New
Jan 18
First Quarter
Jan 26
Full

Hourly Weather History & Observations

Time (EST) Temp. Windchill Dew Point Humidity Pressure Visibility Wind Dir Wind Speed Gust Speed Precip Events Conditions
12:53 AM 27.0 °F 15.6 °F 10.9 °F 51% 29.91 in 10.0 mi NW 13.8 mph - N/A   Clear
1:53 AM 26.1 °F 15.6 °F 9.0 °F 49% 29.91 in 10.0 mi NW 11.5 mph - N/A   Clear
2:53 AM 25.0 °F 13.6 °F 10.9 °F 55% 29.93 in 10.0 mi NW 12.7 mph - N/A   Clear
3:53 AM 24.1 °F 12.0 °F 8.1 °F 51% 29.92 in 10.0 mi NW 13.8 mph - N/A   Clear
4:53 AM 23.0 °F 11.7 °F 9.0 °F 55% 29.93 in 10.0 mi NW 11.5 mph - N/A   Clear
5:53 AM 21.9 °F 8.7 °F 8.1 °F 55% 29.94 in 10.0 mi NNW 15.0 mph 24.2 mph N/A   Clear
7:53 AM 23.0 °F 11.1 °F 10.0 °F 58% 29.95 in 10.0 mi NW 12.7 mph 17.3 mph N/A   Clear
8:53 AM 25.0 °F 14.2 °F 10.9 °F 55% 29.94 in 10.0 mi NW 11.5 mph - N/A   Clear
9:53 AM 27.0 °F 15.2 °F 12.9 °F 56% 29.97 in 10.0 mi WNW 15.0 mph 23.0 mph N/A   Clear
10:53 AM 30.0 °F 19.1 °F 12.0 °F 47% 29.96 in 10.0 mi WNW 15.0 mph 21.9 mph N/A   Clear
11:53 AM 30.0 °F 19.1 °F 14.0 °F 51% 29.93 in 10.0 mi West 15.0 mph - N/A   Clear
12:53 PM 32.0 °F 21.6 °F 15.1 °F 50% 29.91 in 10.0 mi West 15.0 mph 25.3 mph N/A   Clear
1:53 PM 30.0 °F 18.7 °F 15.1 °F 54% 29.91 in 10.0 mi West 16.1 mph - N/A   Clear
2:53 PM 30.0 °F 19.1 °F 16.0 °F 56% 29.93 in 10.0 mi West 15.0 mph 21.9 mph N/A   Clear
3:53 PM 30.0 °F 20.0 °F 14.0 °F 51% 29.95 in 10.0 mi West 12.7 mph - N/A   Partly Cloudy
4:53 PM 30.0 °F 20.5 °F 15.1 °F 54% 29.97 in 10.0 mi WNW 11.5 mph - N/A   Mostly Cloudy
5:53 PM 30.0 °F 18.3 °F 12.0 °F 47% 29.99 in 10.0 mi NW 17.3 mph - N/A   Partly Cloudy
6:53 PM 28.9 °F 17.7 °F 12.9 °F 51% 30.01 in 10.0 mi NW 15.0 mph 27.6 mph N/A   Partly Cloudy
7:53 PM 28.0 °F 15.7 °F 10.9 °F 49% 30.02 in 10.0 mi WNW 17.3 mph 27.6 mph N/A   Clear
8:53 PM 28.0 °F 16.1 °F 10.0 °F 47% 30.04 in 10.0 mi NW 16.1 mph 21.9 mph N/A   Clear
9:53 PM 27.0 °F 14.7 °F 10.0 °F 49% 30.04 in 10.0 mi NW 16.1 mph 26.5 mph N/A   Clear
10:53 PM 26.1 °F 14.0 °F 12.0 °F 55% 30.05 in 10.0 mi NW 15.0 mph 25.3 mph N/A   Clear
11:53 PM 24.1 °F 9.8 °F 10.9 °F 57% 30.06 in 10.0 mi NW 19.6 mph - N/A   Clear